San Diego Brown, CA

8:46 AM PDT on June 28, 2017 (GMT -0700)
Brown Municipal

Weather History for KSDM - November, 2013

Change the Weather History Date:

Thursday, November 21, 2013

  Actual Average Record
Temperature  
Mean Temperature 56 °F 57 °F  
Max Temperature 60 °F 70 °F 90 °F (2002)
Min Temperature 53 °F 45 °F 43 °F (2011)
Degree Days  
Heating Degree Days 8 8  
Month to date heating degree days 126  
Since 1 July heating degree days 191  
Cooling Degree Days 0 0  
Month to date cooling degree days 12  
Year to date cooling degree days 620  
Growing Degree Days 6 (Base 50)    
Moisture  
Dew Point 56 °F    
Average Humidity 93    
Maximum Humidity 100    
Minimum Humidity 83    
Precipitation  
Precipitation 0.04 in 0.04 in 0.45 in (2016)
Month to date precipitation 0.70  
Year to date precipitation 10.00  
Sea Level Pressure  
Sea Level Pressure 29.90 in    
Wind  
Wind Speed 7 mph (SSW)    
Max Wind Speed 12 mph    
Max Gust Speed -    
Visibility 8 miles    
Events Rain    
T = Trace of Precipitation, MM = Missing Value Source: NWS Daily Summary

Daily Weather History Graph

Daily Weather History Graph

Search for Another Location

Airport or City:

Trip Planner

Search our weather history database for the weather conditions in past years. The results will help you decide how hot, cold, wet, or windy it might be!

Date:

Astronomy

Nov. 21, 2013 Rise Set
Actual Time 6:23 AM PST 4:44 PM PST
Civil Twilight 5:56 AM PST 5:10 PM PST
Nautical Twilight 5:26 AM PST 5:40 PM PST
Astronomical Twilight 4:57 AM PST 6:09 PM PST
Moon 8:23 PM PST (11/21) 9:34 AM PST (11/21)
Length of Visible Light 11h 13m
Length of Day
10h 20m
Waning Gibbous, 84% of the Moon is Illuminated
Nov 21
Waning Gibbous
Nov 25
Last Quarter
Dec 2
New
Dec 9
First Quarter
Dec 17
Full

Hourly Weather History & Observations

Time (PST) Temp. Dew Point Humidity Pressure Visibility Wind Dir Wind Speed Gust Speed Precip Events Conditions
12:53 AM 57.9 °F 55.9 °F 93% 29.90 in 6.0 mi SE 8.1 mph - 0.00 in Rain Light Rain
1:53 AM 57.9 °F 55.9 °F 93% 29.89 in 10.0 mi SSE 5.8 mph - 0.00 in   Overcast
2:53 AM 59.0 °F 55.9 °F 90% 29.88 in 10.0 mi SSE 6.9 mph - 0.00 in   Overcast
3:53 AM 59.0 °F 55.0 °F 87% 29.88 in 10.0 mi SSE 8.1 mph - N/A   Overcast
4:05 AM 59.0 °F 55.4 °F 88% 29.89 in 10.0 mi SSE 6.9 mph - N/A   Overcast
4:53 AM 60.1 °F 55.9 °F 86% 29.88 in 10.0 mi South 9.2 mph - N/A   Overcast
5:38 AM 59.0 °F 55.4 °F 88% 29.90 in 10.0 mi South 9.2 mph - N/A   Overcast
5:53 AM 59.0 °F 55.9 °F 90% 29.90 in 10.0 mi South 9.2 mph - N/A   Overcast
6:08 AM 59.0 °F 57.2 °F 94% 29.90 in 8.0 mi South 10.4 mph - N/A   Overcast
6:40 AM 57.2 °F 57.2 °F 100% 29.90 in 4.0 mi South 6.9 mph - 0.00 in Rain Light Rain
6:53 AM 57.9 °F 57.0 °F 97% 29.92 in 4.0 mi SSW 9.2 mph - 0.01 in Rain Light Rain
7:53 AM 59.0 °F 57.9 °F 96% 29.93 in 10.0 mi SSW 5.8 mph - 0.00 in   Overcast
8:04 AM 59.0 °F 57.2 °F 94% 29.93 in 2.0 mi SW 5.8 mph - 0.00 in Rain Light Rain
8:21 AM 59.0 °F 59.0 °F 100% 29.93 in 3.0 mi SSW 6.9 mph - 0.00 in   Overcast
8:53 AM 60.1 °F 59.0 °F 96% 29.92 in 10.0 mi SSW 8.1 mph - 0.00 in   Overcast
9:00 AM 60.8 °F 59.0 °F 94% 29.93 in 10.0 mi SSW 8.1 mph - N/A   Overcast
9:20 AM 60.8 °F 59.0 °F 94% 29.93 in 10.0 mi WSW 6.9 mph - N/A   Overcast
9:30 AM 59.0 °F 57.2 °F 94% 29.93 in 3.0 mi WSW 9.2 mph - 0.00 in Rain Light Rain
9:39 AM 59.0 °F 57.2 °F 94% 29.93 in 2.5 mi WSW 10.4 mph - 0.00 in Rain Light Rain
9:41 AM 59.0 °F 57.2 °F 94% 29.93 in 2.0 mi WSW 11.5 mph - 0.01 in Rain Rain
9:43 AM 59.0 °F 57.2 °F 94% 29.93 in 1.5 mi WSW 10.4 mph - 0.01 in Rain Rain
9:53 AM 59.0 °F 57.9 °F 96% 29.93 in 1.5 mi WSW 8.1 mph - 0.02 in Rain Light Rain
9:56 AM 59.0 °F 57.2 °F 94% 29.94 in 2.0 mi West 10.4 mph - 0.00 in Rain Light Rain
10:20 AM 60.8 °F 59.0 °F 94% 29.93 in 3.0 mi West 9.2 mph - 0.01 in   Overcast
10:46 AM 59.0 °F 57.2 °F 94% 29.93 in 8.0 mi West 10.4 mph - 0.01 in Rain Light Rain
10:53 AM 59.0 °F 57.0 °F 93% 29.92 in 10.0 mi WSW 9.2 mph - 0.01 in   Overcast
11:15 AM 60.8 °F 57.2 °F 88% 29.92 in 10.0 mi West 10.4 mph - N/A   Overcast
11:53 AM 59.0 °F 57.0 °F 93% 29.90 in 7.0 mi West 8.1 mph - 0.00 in Rain Light Rain
12:53 PM 60.1 °F 57.0 °F 90% 29.89 in 10.0 mi West 8.1 mph - N/A   Overcast
1:10 PM 60.8 °F 57.2 °F 88% 29.89 in 10.0 mi SW 5.8 mph - N/A   Overcast
1:53 PM 60.1 °F 55.0 °F 83% 29.88 in 10.0 mi SW 8.1 mph - N/A   Overcast
2:41 PM 59.0 °F 55.4 °F 88% 29.89 in 9.0 mi SW 9.2 mph - 0.00 in   Overcast
2:51 PM 59.0 °F 57.2 °F 94% 29.89 in 10.0 mi SW 6.9 mph - 0.00 in   Overcast
2:53 PM 59.0 °F 57.0 °F 93% 29.89 in 10.0 mi SW 4.6 mph - 0.00 in   Overcast
3:00 PM 59.0 °F 57.2 °F 94% 29.89 in 10.0 mi WSW 8.1 mph - N/A   Overcast
3:10 PM 57.2 °F 55.4 °F 94% 29.89 in 10.0 mi WSW 6.9 mph - 0.00 in Rain Light Rain
3:24 PM 57.2 °F 55.4 °F 94% 29.89 in 10.0 mi WSW 5.8 mph - 0.00 in   Overcast
3:53 PM 57.9 °F 57.0 °F 97% 29.88 in 8.0 mi SSW 3.5 mph - 0.00 in   Mostly Cloudy
4:01 PM 57.2 °F 55.4 °F 94% 29.89 in 10.0 mi SW 3.5 mph - N/A   Mostly Cloudy
4:30 PM 57.2 °F 55.4 °F 94% 29.89 in 10.0 mi West 5.8 mph - N/A   Mostly Cloudy
4:53 PM 57.9 °F 55.9 °F 93% 29.88 in 10.0 mi SW 3.5 mph - N/A   Overcast
5:00 PM 57.2 °F 55.4 °F 94% 29.88 in 10.0 mi SW 3.5 mph - N/A   Mostly Cloudy
5:53 PM 57.0 °F 55.0 °F 93% 29.88 in 10.0 mi SW 3.5 mph - N/A   Mostly Cloudy
6:53 PM 55.9 °F 54.0 °F 93% 29.89 in 10.0 mi Calm Calm - N/A   Clear
7:53 PM 55.0 °F 53.1 °F 93% 29.89 in 10.0 mi Calm Calm - N/A   Mostly Cloudy
8:02 PM 55.4 °F 53.6 °F 94% 29.89 in 10.0 mi Calm Calm - N/A   Overcast
8:29 PM 55.4 °F 53.6 °F 94% 29.89 in 10.0 mi SE 3.5 mph - N/A   Overcast
8:39 PM 55.4 °F 55.4 °F 100% 29.89 in 10.0 mi SE 3.5 mph - N/A   Overcast
8:53 PM 55.0 °F 54.0 °F 96% 29.88 in 10.0 mi ESE 3.5 mph - N/A   Mostly Cloudy
9:53 PM 54.0 °F 53.1 °F 97% 29.87 in 8.0 mi Calm Calm - N/A   Clear
10:16 PM 53.6 °F 53.6 °F 100% 29.88 in 8.0 mi East 3.5 mph - N/A   Mostly Cloudy
10:39 PM 53.6 °F 53.6 °F 100% 29.88 in 7.0 mi Calm Calm - N/A   Overcast
10:53 PM 55.0 °F 54.0 °F 96% 29.87 in 9.0 mi NE 4.6 mph - 0.00 in Rain Light Rain
11:53 PM 54.0 °F 52.0 °F 93% 29.86 in 10.0 mi SE 5.8 mph - 0.00 in   Scattered Clouds